Flag for Canada

Past Weather in Pangnirtung, Nunavut, Canada — Yesterday and Last 2 Weeks

Now
34 °F

Overcast.


Feels Like: 30 °F
Forecast: 36 / 26 °F
Wind: 5 mph from North

Location: Broughton Island Airport
Current Time: Sep 20, 2020 at 1:38:55 am
Latest Report: Sep 20, 2020 at 12:50 am
Visibility: 9 mi
Pressure29.70 "Hg
Humidity: 81%
Dew Point: 28 °F
Location of PangnirtungLocation

Past Weather in Pangnirtung — Graph

°F

Pangnirtung Temperature Yesterday

Maximum temperature yesterday: 39 °F (at 3:00 pm)
Minimum temperature yesterday: 32 °F (at 3:00 am)
Average temperature yesterday: 35 °F

High & Low Weather Summary for the Past Weeks

 TemperatureHumidityPressure
High46 °F (Sep 7, 12:00 pm)100% (Sep 5, 12:00 am)29.98 "Hg (Sep 5, 12:00 am)
Low32 °F (Sep 14, 12:00 am)43% (Sep 7, 3:00 pm)29.51 "Hg (Sep 18, 10:00 am)
Average38 °F79%29.75 "Hg
* Reported Sep 5 12:00 am — Sep 20 12:25 am, Pangnirtung. Weather by CustomWeather, © 2020

Note: Actual official high and low records may vary slightly from our data, if they occured in-between our weather recording intervals... More about our weather records

Pangnirtung Weather History for the Previous 24 Hours

Scroll right to see more
 ConditionsComfort  
Time TempWeatherWind HumidityBarometerVisibility
12:25 am
Sun, Sep 20
34 °FPassing clouds.2 mph87%29.70 "Hg9 mi
12:02 am34 °FPassing clouds.10 mph87%29.70 "Hg9 mi
11:31 pm
Sat, Sep 19
32 °FLight snow. Mostly cloudy.9 mph93%29.69 "Hg9 mi
11:19 pm34 °FLight rain. Mostly cloudy.12 mph81%29.69 "Hg9 mi
10:00 pm34 °FOvercast.13 mph87%29.68 "Hg9 mi
9:41 pm34 °FPassing clouds.15 mph87%29.68 "Hg9 mi
9:00 pm34 °FClear.3 mph75%29.68 "Hg9 mi
8:00 pm34 °FClear.3 mph70%29.67 "Hg9 mi
7:00 pm34 °FClear.6 mph75%29.67 "Hg9 mi
6:00 pm36 °FOvercast.8 mph70%29.67 "Hg9 mi
5:00 pm37 °FBroken clouds.7 mph65%29.67 "Hg15 mi
4:00 pm37 °FBroken clouds.9 mph65%29.67 "Hg15 mi
3:00 pm39 °FScattered clouds.7 mph56%29.67 "Hg15 mi
2:00 pm37 °FPartly sunny.6 mph65%29.67 "Hg15 mi
1:00 pm37 °FBroken clouds.5 mph70%29.67 "Hg15 mi
12:00 pm37 °FScattered clouds.2 mph75%29.67 "Hg15 mi
11:00 am36 °FPartly sunny.2 mph75%29.68 "Hg15 mi
10:00 am36 °FPartly sunny.2 mph81%29.68 "Hg15 mi
9:22 am36 °FPartly sunny.2 mph81%29.67 "Hg15 mi
8:00 am36 °FPartly sunny.2 mph81%29.68 "Hg9 mi
7:00 am34 °FOvercast.5 mph87%29.68 "Hg9 mi
6:00 am34 °FOvercast.5 mph81%29.68 "Hg9 mi
5:00 am34 °FMostly cloudy.No wind87%29.67 "Hg9 mi
4:00 am32 °FPartly cloudy.3 mph87%29.66 "Hg9 mi
3:00 am32 °FPassing clouds.5 mph93%29.65 "Hg9 mi
2:00 am34 °FPassing clouds.5 mph87%29.64 "Hg9 mi
1:00 am37 °FPassing clouds.5 mph60%29.62 "Hg9 mi
Weather by CustomWeather, © 2020

See weather overview